TimeEDT,TemperatureF,Dew PointF,Humidity,Sea Level PressureIn,VisibilityMPH,Wind Direction,Wind SpeedMPH,Gust SpeedMPH,PrecipitationIn,Events,Conditions,WindDirDegrees,DateUTC
12:56 AM,39.0,34.0,82,30.28,10.0,Calm,Calm,-,N/A,,Clear,0,2013-04-26 04:56:00
1:56 AM,37.9,33.1,83,30.28,10.0,NNE,3.5,-,N/A,,Clear,30,2013-04-26 05:56:00
2:56 AM,37.9,33.1,83,30.28,10.0,NE,4.6,-,N/A,,Clear,40,2013-04-26 06:56:00
3:56 AM,36.0,30.9,82,30.30,10.0,North,3.5,-,N/A,,Clear,10,2013-04-26 07:56:00
4:56 AM,37.9,30.0,73,30.31,10.0,NNE,4.6,-,N/A,,Clear,20,2013-04-26 08:56:00
5:56 AM,37.0,30.0,76,30.33,9.0,NNE,3.5,-,N/A,,Clear,30,2013-04-26 09:56:00
6:56 AM,39.0,30.9,73,30.35,9.0,North,4.6,-,N/A,,Clear,360,2013-04-26 10:56:00
7:56 AM,48.9,32.0,52,30.35,6.0,NE,5.8,-,N/A,,Haze,40,2013-04-26 11:56:00
8:56 AM,54.0,30.9,41,30.36,10.0,East,3.5,-,N/A,,Clear,100,2013-04-26 12:56:00
9:56 AM,55.9,32.0,40,30.37,10.0,East,11.5,-,N/A,,Clear,100,2013-04-26 13:56:00
10:56 AM,57.0,34.0,42,30.38,10.0,ESE,9.2,-,N/A,,Clear,120,2013-04-26 14:56:00
11:56 AM,55.0,37.0,51,30.38,10.0,ESE,10.4,-,N/A,,Clear,120,2013-04-26 15:56:00
12:56 PM,55.9,39.9,55,30.37,10.0,SE,11.5,-,N/A,,Clear,130,2013-04-26 16:56:00
1:56 PM,57.0,39.0,51,30.36,10.0,SSE,10.4,-,N/A,,Clear,150,2013-04-26 17:56:00
2:56 PM,57.0,39.0,51,30.35,10.0,SE,9.2,-,N/A,,Clear,140,2013-04-26 18:56:00
3:56 PM,54.0,42.1,64,30.35,9.0,SSE,9.2,-,N/A,,Clear,160,2013-04-26 19:56:00
4:56 PM,54.0,39.0,57,30.35,10.0,South,6.9,-,N/A,,Clear,170,2013-04-26 20:56:00
5:56 PM,54.0,37.9,55,30.35,9.0,SE,5.8,-,N/A,,Partly Cloudy,140,2013-04-26 21:56:00
6:56 PM,52.0,39.9,63,30.36,9.0,ESE,4.6,-,N/A,,Scattered Clouds,120,2013-04-26 22:56:00
7:56 PM,50.0,39.9,68,30.37,9.0,ESE,5.8,-,N/A,,Mostly Cloudy,110,2013-04-26 23:56:00
8:56 PM,48.0,42.1,80,30.38,9.0,East,6.9,-,N/A,,Partly Cloudy,100,2013-04-27 00:56:00
9:56 PM,48.0,43.0,83,30.40,9.0,East,6.9,-,N/A,,Clear,90,2013-04-27 01:56:00
10:56 PM,46.9,44.1,90,30.40,8.0,East,8.1,-,N/A,,Clear,100,2013-04-27 02:56:00
11:56 PM,46.9,44.1,90,30.40,7.0,East,4.6,-,N/A,,Partly Cloudy,90,2013-04-27 03:56:00